| time (UTC) | temp C | wind direction | speed KPH | gust KPH | rain 1hr cm | rain 24hr cm | rain mn cm | humidity % | barometer mb |
| 20260504035438 | 16 | 30 | 0.0 | 3.2 | 0.00 | 0.00 | 0.00 | 49 | 1008.5 |
| 20260504034940 | 16 | 30 | 0.0 | 3.2 | 0.00 | 0.00 | 0.00 | 49 | 1008.4 |
| 20260504034439 | 16 | 302 | 0.0 | 3.2 | 0.00 | 0.00 | 0.00 | 48 | 1008.4 |
| 20260504033941 | 16 | 233 | 0.0 | 3.2 | 0.00 | 0.00 | 0.00 | 48 | 1008.3 |
| 20260504033440 | 16 | 227 | 0.0 | 1.6 | 0.00 | 0.00 | 0.00 | 51 | 1008.3 |
| 20260504032434 | 16 | 217 | 0.0 | 1.6 | 0.00 | 0.00 | 0.00 | 52 | 1008.3 |
| 20260504031934 | 16 | 217 | 0.0 | 1.6 | 0.00 | 0.00 | 0.00 | 52 | 1008.2 |
| 20260504030934 | 16 | 217 | 0.0 | 1.6 | 0.00 | 0.00 | 0.00 | 53 | 1008.1 |
| 20260504030434 | 17 | 205 | 0.0 | 1.6 | 0.00 | 0.00 | 0.00 | 52 | 1008.2 |
| 20260504025434 | 17 | 206 | 0.0 | 1.6 | 0.00 | 0.00 | 0.00 | 49 | 1008.2 |
| 20260504024935 | 18 | 200 | 0.0 | 0.0 | 0.00 | 0.00 | 0.00 | 50 | 1008.1 |
| 20260504024430 | 18 | 200 | 0.0 | 0.0 | 0.00 | 0.00 | 0.00 | 50 | 1008.2 |
| 20260504023929 | 18 | 198 | 0.0 | 0.0 | 0.00 | 0.00 | 0.00 | 48 | 1008.1 |
| 20260504023429 | 18 | 196 | 0.0 | 0.0 | 0.00 | 0.00 | 0.00 | 47 | 1008.1 |
| 20260504022930 | 19 | 196 | 0.0 | 0.0 | 0.00 | 0.00 | 0.00 | 45 | 1008.2 |
| 20260504022430 | 19 | 196 | 0.0 | 0.0 | 0.00 | 0.00 | 0.00 | 45 | 1008.2 |
| 20260504021929 | 19 | 200 | 0.0 | 0.0 | 0.00 | 0.00 | 0.00 | 44 | 1008.2 |
| 20260504021430 | 20 | 200 | 0.0 | 0.0 | 0.00 | 0.00 | 0.00 | 44 | 1008.1 |
| 20260504020930 | 20 | 200 | 0.0 | 0.0 | 0.00 | 0.00 | 0.00 | 44 | 1008.2 |
| 20260504020429 | 20 | 200 | 0.0 | 0.0 | 0.00 | 0.00 | 0.00 | 43 | 1008.2 |
| 20260504015932 | 21 | 200 | 0.0 | 0.0 | 0.00 | 0.00 | 0.00 | 43 | 1008.2 |
| 20260504015429 | 21 | 200 | 0.0 | 1.6 | 0.00 | 0.00 | 0.00 | 42 | 1008.2 |
| 20260504013929 | 23 | 207 | 0.0 | 3.2 | 0.00 | 0.00 | 0.00 | 37 | 1008.3 |
| 20260504012930 | 24 | 220 | 0.0 | 3.2 | 0.00 | 0.00 | 0.00 | 36 | 1008.2 |
| 20260504011930 | 23 | 211 | 0.0 | 1.6 | 0.00 | 0.00 | 0.00 | 36 | 1008.3 |
| 20260504011428 | 23 | 80 | 0.0 | 3.2 | 0.00 | 0.00 | 0.00 | 37 | 1008.3 |
| 20260504010925 | 23 | 152 | 1.6 | 3.2 | 0.00 | 0.00 | 0.00 | 35 | 1008.3 |
| 20260504010418 | 23 | 196 | 0.0 | 3.2 | 0.00 | 0.00 | 0.00 | 36 | 1008.2 |
| 20260504005911 | 24 | 246 | 0.0 | 1.6 | 0.00 | 0.00 | 0.00 | 36 | 1008.4 |
| 20260504005409 | 24 | 244 | 0.0 | 1.6 | 0.00 | 0.00 | 0.00 | 35 | 1008.4 |
| 20260504004910 | 24 | 264 | 1.6 | 4.8 | 0.00 | 0.00 | 0.00 | 34 | 1008.4 |
| 20260504004410 | 24 | 242 | 0.0 | 4.8 | 0.00 | 0.00 | 0.00 | 34 | 1008.5 |
| 20260504003911 | 24 | 34 | 0.0 | 3.2 | 0.00 | 0.00 | 0.00 | 34 | 1008.5 |
| 20260504003407 | 23 | 203 | 1.6 | 3.2 | 0.00 | 0.00 | 0.00 | 35 | 1008.6 |
| 20260504002905 | 23 | 236 | 0.0 | 4.8 | 0.00 | 0.00 | 0.00 | 35 | 1008.5 |
| 20260504002401 | 23 | 257 | 0.0 | 4.8 | 0.00 | 0.00 | 0.00 | 36 | 1008.6 |
| 20260504001902 | 23 | 229 | 0.0 | 1.6 | 0.00 | 0.00 | 0.00 | 33 | 1008.6 |
| 20260504001401 | 24 | 247 | 1.6 | 3.2 | 0.00 | 0.00 | 0.00 | 36 | 1008.7 |
| 20260504000902 | 25 | 222 | 1.6 | 3.2 | 0.00 | 0.00 | 0.00 | 33 | 1008.7 |
| 20260504000401 | 25 | 219 | 1.6 | 3.2 | 0.00 | 0.00 | 0.00 | 31 | 1008.6 |
| 20260503235902 | 26 | 238 | 1.6 | 6.4 | 0.00 | 0.00 | 0.00 | 32 | 1008.7 |
| 20260503235401 | 26 | 229 | 1.6 | 6.4 | 0.00 | 0.00 | 0.00 | 31 | 1008.6 |
| 20260503234901 | 26 | 210 | 1.6 | 4.8 | 0.00 | 0.00 | 0.00 | 29 | 1008.9 |
| 20260503234405 | 26 | 23 | 0.0 | 4.8 | 0.00 | 0.00 | 0.00 | 29 | 1009.0 |
| 20260503233405 | 25 | 139 | 1.6 | 3.2 | 0.00 | 0.00 | 0.00 | 31 | 1008.9 |
| 20260503232904 | 25 | 16 | 1.6 | 6.4 | 0.00 | 0.00 | 0.00 | 31 | 1009.1 |
| 20260503232401 | 25 | 113 | 1.6 | 6.4 | 0.00 | 0.00 | 0.00 | 32 | 1009.0 |
| 20260503231901 | 25 | 57 | 1.6 | 4.8 | 0.00 | 0.00 | 0.00 | 32 | 1009.2 |
| 20260503231401 | 25 | 130 | 1.6 | 6.4 | 0.00 | 0.00 | 0.00 | 34 | 1009.1 |
| 20260503230901 | 24 | 46 | 1.6 | 6.4 | 0.00 | 0.00 | 0.00 | 31 | 1009.2 |
| 20260503225901 | 24 | 225 | 1.6 | 8.0 | 0.00 | 0.00 | 0.00 | 36 | 1009.3 |
| 20260503225401 | 24 | 97 | 1.6 | 8.0 | 0.00 | 0.00 | 0.00 | 33 | 1009.5 |
| 20260503224902 | 24 | 210 | 1.6 | 6.4 | 0.00 | 0.00 | 0.00 | 32 | 1009.5 |
| 20260503223901 | 23 | 209 | 1.6 | 9.7 | 0.00 | 0.00 | 0.00 | 34 | 1009.5 |
| 20260503223401 | 23 | 109 | 3.2 | 4.8 | 0.00 | 0.00 | 0.00 | 35 | 1009.7 |
| 20260503222400 | 22 | 60 | 3.2 | 6.4 | 0.00 | 0.00 | 0.00 | 36 | 1010.1 |
| 20260503221901 | 22 | 63 | 3.2 | 6.4 | 0.00 | 0.00 | 0.00 | 34 | 1010.2 |
| 20260503221356 | 23 | 57 | 1.6 | 6.4 | 0.00 | 0.00 | 0.00 | 33 | 1010.2 |
| 20260503220849 | 23 | 301 | 1.6 | 4.8 | 0.00 | 0.00 | 0.00 | 32 | 1010.3 |
| 20260503220343 | 23 | 58 | 1.6 | 4.8 | 0.00 | 0.00 | 0.00 | 34 | 1010.3 |
| 20260503215837 | 23 | 63 | 3.2 | 6.4 | 0.00 | 0.00 | 0.00 | 35 | 1010.5 |
| 20260503215334 | 23 | 54 | 3.2 | 8.0 | 0.00 | 0.00 | 0.00 | 35 | 1010.6 |
| 20260503214334 | 23 | 252 | 1.6 | 9.7 | 0.00 | 0.00 | 0.00 | 34 | 1010.8 |
| 20260503213833 | 23 | 41 | 1.6 | 6.4 | 0.00 | 0.00 | 0.00 | 36 | 1010.8 |
| 20260503212832 | 22 | 54 | 3.2 | 6.4 | 0.00 | 0.00 | 0.00 | 36 | 1011.2 |
| 20260503212333 | 23 | 17 | 1.6 | 6.4 | 0.00 | 0.00 | 0.00 | 34 | 1011.3 |
| 20260503211331 | 23 | 139 | 1.6 | 9.7 | 0.00 | 0.00 | 0.00 | 32 | 1011.5 |
| 20260503205832 | 23 | 330 | 1.6 | 8.0 | 0.00 | 0.00 | 0.00 | 34 | 1011.7 |
| 20260503205331 | 23 | 282 | 3.2 | 11.3 | 0.00 | 0.00 | 0.00 | 36 | 1011.7 |
| 20260503204831 | 22 | 146 | 3.2 | 11.3 | 0.00 | 0.00 | 0.00 | 36 | 1011.8 |
| 20260503204331 | 23 | 186 | 1.6 | 8.0 | 0.00 | 0.00 | 0.00 | 37 | 1011.8 |
| 20260503203832 | 23 | 109 | 3.2 | 8.0 | 0.00 | 0.00 | 0.00 | 34 | 1011.8 |
| 20260503203337 | 22 | 137 | 1.6 | 6.4 | 0.00 | 0.00 | 0.00 | 37 | 1011.9 |
| 20260503202833 | 22 | 78 | 1.6 | 6.4 | 0.00 | 0.00 | 0.00 | 37 | 1012.1 |
| 20260503202329 | 22 | 84 | 1.6 | 6.4 | 0.00 | 0.00 | 0.00 | 38 | 1012.2 |
| 20260503201831 | 23 | 151 | 1.6 | 6.4 | 0.00 | 0.00 | 0.00 | 37 | 1012.2 |
| 20260503201330 | 22 | 116 | 1.6 | 4.8 | 0.00 | 0.00 | 0.00 | 40 | 1012.4 |
| 20260503200829 | 22 | 118 | 3.2 | 6.4 | 0.00 | 0.00 | 0.00 | 35 | 1012.4 |
| 20260503200330 | 22 | 79 | 3.2 | 6.4 | 0.00 | 0.00 | 0.00 | 37 | 1012.5 |
| 20260503195330 | 22 | 55 | 3.2 | 4.8 | 0.00 | 0.00 | 0.00 | 33 | 1012.6 |
| 20260503194831 | 22 | 127 | 3.2 | 6.4 | 0.00 | 0.00 | 0.00 | 35 | 1012.6 |
| 20260503194330 | 21 | 61 | 4.8 | 11.3 | 0.00 | 0.00 | 0.00 | 35 | 1012.6 |
| 20260503193829 | 21 | 59 | 4.8 | 11.3 | 0.00 | 0.00 | 0.00 | 35 | 1012.7 |
| 20260503192830 | 21 | 34 | 3.2 | 6.4 | 0.00 | 0.00 | 0.00 | 31 | 1012.8 |
| 20260503192329 | 22 | 16 | 3.2 | 4.8 | 0.00 | 0.00 | 0.00 | 31 | 1012.9 |
| 20260503191829 | 22 | 85 | 3.2 | 4.8 | 0.00 | 0.00 | 0.00 | 31 | 1012.9 |
| 20260503191329 | 22 | 75 | 3.2 | 4.8 | 0.00 | 0.00 | 0.00 | 32 | 1013.0 |
| 20260503190829 | 21 | 30 | 3.2 | 6.4 | 0.00 | 0.00 | 0.00 | 33 | 1013.1 |
| 20260503190329 | 21 | 70 | 1.6 | 6.4 | 0.00 | 0.00 | 0.00 | 34 | 1013.1 |
| 20260503185830 | 21 | 69 | 3.2 | 6.4 | 0.00 | 0.00 | 0.00 | 35 | 1013.1 |
| 20260503185329 | 21 | 74 | 3.2 | 6.4 | 0.00 | 0.00 | 0.00 | 35 | 1013.2 |
| 20260503184829 | 21 | 73 | 1.6 | 4.8 | 0.00 | 0.00 | 0.00 | 40 | 1013.2 |
| 20260503184330 | 21 | 305 | 1.6 | 3.2 | 0.00 | 0.00 | 0.00 | 40 | 1013.2 |
| 20260503183829 | 21 | 145 | 1.6 | 6.4 | 0.00 | 0.00 | 0.00 | 39 | 1013.2 |
| 20260503182830 | 21 | 131 | 1.6 | 4.8 | 0.00 | 0.00 | 0.00 | 38 | 1013.3 |
| 20260503182330 | 21 | 301 | 1.6 | 4.8 | 0.00 | 0.00 | 0.00 | 38 | 1013.4 |
| 20260503181829 | 20 | 47 | 1.6 | 6.4 | 0.00 | 0.00 | 0.00 | 39 | 1013.6 |
| 20260503181331 | 20 | 105 | 1.6 | 6.4 | 0.00 | 0.00 | 0.00 | 40 | 1013.7 |
| 20260503180832 | 20 | 60 | 1.6 | 8.0 | 0.00 | 0.00 | 0.00 | 42 | 1013.7 |
| 20260503174833 | 19 | 36 | 0.0 | 3.2 | 0.00 | 0.00 | 0.00 | 49 | 1013.9 |
| 20260503174333 | 19 | 247 | 0.0 | 3.2 | 0.00 | 0.00 | 0.00 | 46 | 1014.0 |
| 20260503173835 | 19 | 245 | 0.0 | 4.8 | 0.00 | 0.00 | 0.00 | 46 | 1014.0 |
| 20260503173331 | 18 | 336 | 0.0 | 4.8 | 0.00 | 0.00 | 0.00 | 49 | 1014.1 |
| 20260503172832 | 18 | 67 | 1.6 | 3.2 | 0.00 | 0.00 | 0.00 | 54 | 1014.0 |
| 20260503172336 | 17 | 88 | 1.6 | 4.8 | 0.00 | 0.00 | 0.00 | 53 | 1014.2 |
| 20260503171832 | 17 | 76 | 1.6 | 4.8 | 0.00 | 0.00 | 0.00 | 54 | 1014.2 |
| 20260503170831 | 17 | 31 | 0.0 | 3.2 | 0.00 | 0.00 | 0.00 | 54 | 1014.5 |
| 20260503170333 | 16 | 38 | 1.6 | 4.8 | 0.00 | 0.00 | 0.00 | 57 | 1014.4 |
| 20260503150830 | 9 | 67 | 0.0 | 1.6 | 0.00 | 0.00 | 0.00 | 80 | 1015.5 |
| 20260503150329 | 8 | 67 | 0.0 | 1.6 | 0.00 | 0.00 | 0.00 | 82 | 1015.5 |
| 20260503131318 | 3 | 269 | 0.0 | 0.0 | 0.00 | 0.00 | 0.00 | 93 | 1015.5 |
| 20260503130819 | 3 | 269 | 0.0 | 0.0 | 0.00 | 0.00 | 0.00 | 95 | 1015.5 |
| 20260503130319 | 3 | 269 | 0.0 | 0.0 | 0.00 | 0.00 | 0.00 | 94 | 1015.3 |
| 20260503110802 | 5 | 288 | 0.0 | 1.6 | 0.00 | 0.00 | 0.00 | 90 | 1015.2 |
| 20260503110301 | 5 | 288 | 0.0 | 3.2 | 0.00 | 0.00 | 0.00 | 90 | 1015.2 |
| 20260503081301 | 7 | 232 | 0.0 | 0.0 | 0.00 | 0.00 | 0.00 | 79 | 1015.0 |
| 20260503080804 | 7 | 232 | 0.0 | 0.0 | 0.00 | 0.00 | 0.00 | 79 | 1015.0 |
| 20260503080301 | 7 | 232 | 0.0 | 0.0 | 0.00 | 0.00 | 0.00 | 80 | 1014.9 |
| 20260503072806 | 10 | 109 | 0.0 | 0.0 | 0.00 | 0.00 | 0.00 | 80 | 1014.9 |
| 20260503072301 | 10 | 109 | 0.0 | 1.6 | 0.00 | 0.00 | 0.00 | 80 | 1014.9 |
| 20260503071802 | 10 | 109 | 0.0 | 1.6 | 0.00 | 0.00 | 0.00 | 81 | 1014.9 |
| 20260503070756 | 10 | 112 | 0.0 | 1.6 | 0.00 | 0.00 | 0.00 | 79 | 1014.8 |
| 20260503070250 | 10 | 98 | 0.0 | 1.6 | 0.00 | 0.00 | 0.00 | 79 | 1014.8 |
| 20260503060234 | 11 | 88 | 0.0 | 3.2 | 0.00 | 0.00 | 0.00 | 77 | 1014.4 |
| 20260503054730 | 10 | 221 | 0.0 | 1.6 | 0.00 | 0.00 | 0.00 | 69 | 1014.3 |
| 20260503054229 | 10 | 268 | 0.0 | 1.6 | 0.00 | 0.00 | 0.00 | 72 | 1014.2 |
| 20260503053729 | 11 | 123 | 0.0 | 1.6 | 0.00 | 0.00 | 0.00 | 71 | 1014.1 |
| 20260503053230 | 11 | 109 | 0.0 | 1.6 | 0.00 | 0.00 | 0.00 | 70 | 1014.2 |
| 20260503052730 | 11 | 108 | 0.0 | 1.6 | 0.00 | 0.00 | 0.00 | 70 | 1014.3 |
| 20260503052230 | 11 | 118 | 0.0 | 0.0 | 0.00 | 0.00 | 0.00 | 71 | 1014.2 |
| 20260503051732 | 11 | 119 | 0.0 | 0.0 | 0.00 | 0.00 | 0.00 | 69 | 1014.3 |
| 20260503051230 | 11 | 119 | 0.0 | 0.0 | 0.00 | 0.00 | 0.00 | 69 | 1014.3 |
| 20260503050731 | 11 | 119 | 0.0 | 0.0 | 0.00 | 0.00 | 0.00 | 71 | 1014.3 |
| 20260503050229 | 11 | 119 | 0.0 | 0.0 | 0.00 | 0.00 | 0.00 | 71 | 1014.3 |
| 20260503045729 | 11 | 119 | 0.0 | 0.0 | 0.00 | 0.00 | 0.00 | 70 | 1014.3 |
| 20260503045229 | 12 | 119 | 0.0 | 0.0 | 0.00 | 0.00 | 0.00 | 69 | 1014.3 |
| 20260503044729 | 12 | 118 | 0.0 | 0.0 | 0.00 | 0.00 | 0.00 | 70 | 1014.3 |
| 20260503044230 | 12 | 119 | 0.0 | 0.0 | 0.00 | 0.00 | 0.00 | 67 | 1014.3 |
| 20260503043729 | 12 | 119 | 0.0 | 0.0 | 0.00 | 0.00 | 0.00 | 65 | 1014.2 |
| 20260503042730 | 13 | 119 | 0.0 | 0.0 | 0.00 | 0.00 | 0.00 | 61 | 1014.1 |
| 20260503042230 | 13 | 119 | 0.0 | 0.0 | 0.00 | 0.00 | 0.00 | 65 | 1014.0 |
| 20260503041729 | 13 | 118 | 0.0 | 0.0 | 0.00 | 0.00 | 0.00 | 65 | 1014.0 |
| 20260503041230 | 13 | 118 | 0.0 | 1.6 | 0.00 | 0.00 | 0.00 | 61 | 1014.0 |
| 20260503040730 | 14 | 118 | 0.0 | 1.6 | 0.00 | 0.00 | 0.00 | 63 | 1014.1 |